BREEZE-M DEB (TANK), 42944

Orbit data source: Space-Track

BREEZE-M DEB (TANK), 42944 is space debris in HEO originally from a launch on Thu, 28 Sep 2017 UTC launched from the Tyuratam Missile And Space Complex (TTMTR). Debris objects in space refer to the collection of defunct objects orbiting the Earth. Examples of debris include non-operational satellites, rocket bodies, and fragments generated from explosions, collisions, or faulty payload assembly.

Loading next visibility...
Identifier
42944, 2017-057C
Orbit
HEO
Country
Flag of CISCIS
Related business
Manufacturer
Khrunichev
Mission
Spacecraft
Bus & Motor
BRIZ TANK, Unknown motor
Mass
~1,000 kg wet, 1,000 kg dry
Launch date (UTC)
2017-09-28 (9 years ago)
Launch vehicle
Unknown
Launch site
Tyuratam Missile And Space Complex (TTMTR)
Object type
Payload
Rocket body
Debris
Shape & HBR
Torus, 2.0 m
Radar Cross Section
8.218 m², Large (>1 m²)

Expand to show TLE details & history
Last TLE update: 3 days ago

TLE from 3 days ago
0 BREEZE-M DEB (TANK)
1 42944U 17057C   26170.87094358  .00001120  00000-0  34359-3 0  9994
2 42944  49.6865 313.7968 5097575 310.8013  14.9695  5.41532888168300
Epoch: 2026-06-19T20:54Z
TLE epoch observation values (Epoch: 2026-06-19T20:54:09.525Z)
Latitude
-0.00001°
Longitude
92.15045°
Altitude
1,227.554 km
Speed
8.702 km/s
True Right ascension
20h 55m 08s
True Declination
0° 00' 00"
Sunlit
Object was in full shadow at epoch
Visualization orbit readout
Latitude
Unknown
Longitude
Unknown
Altitude
Unknown
Speed
Unknown
Apparent Right ascension
Unknown
Apparent Declination
Unknown
Sunlit
N/A
Visualization observer readout
Local Sidereal Time
21:24:42
Azimuth
Unknown
Elevation
Unknown
Doppler factor
Unknown
Orbital elements
Apogee altitude
14,303.26 km
Perigee altitude
337.445 km
Semi-major axis
13,698.49 km
Eccentricity
0.50976
Inclination
49.6865°
RAAN
313.7968°
Arg. of periapsis
310.8013°
True anomaly
49.18285°
Mean anomaly
14.9695°
Eccentric anomaly
29.23314°
Mean motion
1.35374 °/min
Orbital period
265.93 mins
BSTAR
0.00034359
Loading maneuver chart data...
Computing Atmospheric mass density...
Loading historical data...
Loading historical data...
Loading historical data...
Loading historical data...
Loading historical data...
Loading historical data...
Loading historical data...
Other satellites on launch #57 in the year 2017 (2017-09-28 UTC)

Documentation

Showing up to 5 results
|